IBE250 LPPT-ESSA

Flight info

Callsign IBE250
Flight time N/A
Altitude 38000
Route IXID1S IXIDA PINEK LOTEE AZFIC ERIGA GODIX PODEM UN873 BAZOS BELDI VEKIN ADUTO N873 VICOT JUIST ROCZO DOSUR DETSO N873 ARS T317 ELTOK ELTO8P
Aircraft A346/H-VGDW/C

Departure

Time 2026-05-07 16:18
Airport Lisbon Humberto Delgado Airport (LPPT)

Arrival

Time N/A
Airport Stockholm-Arlanda Airport (ESSA)
Time Latitude Longitude Altitude Speed Heading
2026-05-07 15:45 38.77068 -9.13616 355 ft 0 kts 261°
2026-05-07 16:05 38.77068 -9.13611 363 ft 0 kts 261°
2026-05-07 16:05 38.77072 -9.13579 362 ft 0 kts 261°
2026-05-07 16:06 38.77076 -9.13545 362 ft 0 kts 261°
2026-05-07 16:06 38.77082 -9.13524 360 ft 0 kts 232°
2026-05-07 16:06 38.77083 -9.13524 360 ft 0 kts 232°
2026-05-07 16:06 38.77082 -9.13524 360 ft 0 kts 232°
2026-05-07 16:07 38.77083 -9.13523 360 ft 0 kts 232°
2026-05-07 16:07 38.77098 -9.13498 362 ft 1 kts 232°
2026-05-07 16:07 38.77115 -9.13474 365 ft 1 kts 218°
2026-05-07 16:07 38.77131 -9.13468 361 ft 2 kts 176°
2026-05-07 16:08 38.77141 -9.13471 365 ft 0 kts 159°
2026-05-07 16:09 38.77140 -9.13471 355 ft 1 kts 159°
2026-05-07 16:09 38.77127 -9.13464 362 ft 4 kts 159°
2026-05-07 16:10 38.77087 -9.13448 362 ft 9 kts 165°
2026-05-07 16:10 38.77003 -9.13424 361 ft 14 kts 168°
2026-05-07 16:10 38.76899 -9.13396 360 ft 17 kts 168°
2026-05-07 16:10 38.76825 -9.13375 357 ft 5 kts 168°
2026-05-07 16:11 38.76799 -9.13369 357 ft 0 kts 171°
2026-05-07 16:11 38.76787 -9.13368 359 ft 3 kts 182°
2026-05-07 16:11 38.76755 -9.13382 363 ft 6 kts 209°
2026-05-07 16:11 38.76707 -9.13416 363 ft 10 kts 209°
2026-05-07 16:12 38.76671 -9.13453 361 ft 7 kts 230°
2026-05-07 16:12 38.76647 -9.13517 361 ft 5 kts 257°
2026-05-07 16:12 38.76639 -9.13573 361 ft 8 kts 258°
2026-05-07 16:12 38.76626 -9.13655 360 ft 11 kts 258°
2026-05-07 16:13 38.76610 -9.13758 355 ft 13 kts 259°
2026-05-07 16:13 38.76593 -9.13867 355 ft 10 kts 258°
2026-05-07 16:13 38.76581 -9.13942 358 ft 4 kts 258°
2026-05-07 16:13 38.76568 -9.13989 361 ft 7 kts 242°
2026-05-07 16:14 38.76532 -9.14053 363 ft 10 kts 232°
2026-05-07 16:14 38.76501 -9.14147 361 ft 13 kts 264°
2026-05-07 16:14 38.76520 -9.14253 356 ft 13 kts 291°
2026-05-07 16:14 38.76548 -9.14338 356 ft 12 kts 296°
2026-05-07 16:15 38.76587 -9.14401 355 ft 7 kts 357°
2026-05-07 16:15 38.76647 -9.14387 354 ft 9 kts 20°
2026-05-07 16:15 38.76667 -9.14377 352 ft 0 kts 22°
2026-05-07 16:16 38.76667 -9.14376 352 ft 0 kts 22°
2026-05-07 16:16 38.76681 -9.14369 358 ft 14 kts 22°
2026-05-07 16:17 38.76994 -9.14202 359 ft 83 kts 22°
2026-05-07 16:17 38.77722 -9.13812 354 ft 142 kts 22°
2026-05-07 16:17 38.78797 -9.13226 400 ft 185 kts 21°
2026-05-07 16:17 38.79966 -9.12525 940 ft 189 kts 26°
2026-05-07 16:18 38.81091 -9.11584 1604 ft 195 kts 28°
2026-05-07 16:18 38.82251 -9.10657 2282 ft 200 kts 27°
2026-05-07 16:18 38.83498 -9.09728 2660 ft 213 kts 24°
2026-05-07 16:18 38.84865 -9.08800 3050 ft 228 kts 22°
2026-05-07 16:19 38.86333 -9.07832 3405 ft 247 kts 23°
2026-05-07 16:19 38.87924 -9.06780 3777 ft 266 kts 25°
2026-05-07 16:19 38.89543 -9.05521 4360 ft 277 kts 35°
2026-05-07 16:19 38.91061 -9.03940 5139 ft 278 kts 43°
2026-05-07 16:20 38.92509 -9.02235 6025 ft 278 kts 45°
2026-05-07 16:20 38.93918 -9.00553 6799 ft 281 kts 45°
2026-05-07 16:20 38.95387 -8.98789 7576 ft 285 kts 44°
2026-05-07 16:20 38.96864 -8.97050 8340 ft 291 kts 45°
2026-05-07 16:21 38.98376 -8.95274 9086 ft 297 kts 45°
2026-05-07 16:21 38.99911 -8.93468 9906 ft 301 kts 45°
2026-05-07 16:21 39.01463 -8.91650 10566 ft 310 kts 44°
2026-05-07 16:21 39.03103 -8.89726 11007 ft 328 kts 43°
2026-05-07 16:22 39.04835 -8.87700 11437 ft 346 kts 44°
2026-05-07 16:22 39.06665 -8.85562 11870 ft 364 kts 44°
2026-05-07 16:22 39.08588 -8.83309 12294 ft 382 kts 43°
2026-05-07 16:22 39.10615 -8.80936 12728 ft 398 kts 43°
2026-05-07 16:23 39.12735 -8.78447 13537 ft 403 kts 43°
2026-05-07 16:23 39.14821 -8.75999 14337 ft 406 kts 43°
2026-05-07 16:23 39.16867 -8.73463 15079 ft 410 kts 46°
2026-05-07 16:23 39.18821 -8.70736 15710 ft 417 kts 48°
2026-05-07 16:24 39.20788 -8.67857 16437 ft 422 kts 48°
2026-05-07 16:24 39.22618 -8.65163 17058 ft 427 kts 48°
2026-05-07 16:24 39.24687 -8.62119 17816 ft 432 kts 47°
2026-05-07 16:24 39.26687 -8.59182 18467 ft 437 kts 47°
2026-05-07 16:25 39.28704 -8.56223 19113 ft 440 kts 47°
2026-05-07 16:25 39.30734 -8.53244 19728 ft 444 kts 47°
2026-05-07 16:25 39.32783 -8.50234 20344 ft 448 kts 47°
2026-05-07 16:25 39.34857 -8.47182 20932 ft 452 kts 47°
2026-05-07 16:26 39.36943 -8.44109 21525 ft 457 kts 47°
2026-05-07 16:26 39.39013 -8.41054 22088 ft 461 kts 47°
2026-05-07 16:26 39.41138 -8.37915 22651 ft 466 kts 47°
2026-05-07 16:26 39.42475 -8.35938 23000 ft 469 kts 47°
2026-05-07 16:27 39.45514 -8.31431 23693 ft 475 kts 47°
2026-05-07 16:27 39.47699 -8.28194 24100 ft 480 kts 47°
2026-05-07 16:27 39.49905 -8.24925 24601 ft 483 kts 46°
2026-05-07 16:27 39.52160 -8.21579 25094 ft 487 kts 46°
2026-05-07 16:28 39.54396 -8.18253 25545 ft 491 kts 46°
2026-05-07 16:28 39.56620 -8.14943 25993 ft 494 kts 46°
2026-05-07 16:28 39.58889 -8.11563 26414 ft 499 kts 46°
2026-05-07 16:28 39.61196 -8.08135 26874 ft 502 kts 44°
2026-05-07 16:29 39.63857 -8.05166 27180 ft 499 kts 27°
2026-05-07 16:29 39.67025 -8.03433 27613 ft 490 kts
2026-05-07 16:29 39.70387 -8.02948 28072 ft 480 kts 353°
2026-05-07 16:29 39.73668 -8.03570 28580 ft 473 kts 343°
2026-05-07 16:30 39.76761 -8.04406 29273 ft 471 kts 342°
2026-05-07 16:30 39.80540 -8.05429 30087 ft 469 kts 342°
2026-05-07 16:30 39.85361 -8.06712 31026 ft 465 kts 342°
2026-05-07 16:30 39.90402 -8.08031 32037 ft 460 kts 342°
2026-05-07 16:31 39.94569 -8.09113 32878 ft 456 kts 342°
2026-05-07 16:31 39.97676 -8.09917 33548 ft 453 kts 341°
2026-05-07 16:31 40.00753 -8.10713 34135 ft 450 kts 341°
2026-05-07 16:31 40.03810 -8.11507 34629 ft 448 kts 341°
2026-05-07 16:32 40.06880 -8.12306 35069 ft 448 kts 341°
2026-05-07 16:32 40.09938 -8.13103 35517 ft 447 kts 341°
2026-05-07 16:32 40.13013 -8.13904 35872 ft 448 kts 341°
2026-05-07 16:32 40.16097 -8.14708 36176 ft 449 kts 341°
2026-05-07 16:33 40.19166 -8.15507 36524 ft 451 kts 342°
2026-05-07 16:33 40.22274 -8.16320 36803 ft 452 kts 342°
2026-05-07 16:33 40.25371 -8.17128 37054 ft 454 kts 342°
2026-05-07 16:33 40.28484 -8.17940 37307 ft 455 kts 342°
2026-05-07 16:34 40.30736 -8.18527 37498 ft 456 kts 342°
2026-05-07 16:34 40.33878 -8.19347 37737 ft 458 kts 342°
2026-05-07 16:34 40.37009 -8.20166 37875 ft 460 kts 342°
2026-05-07 16:35 40.43290 -8.21808 37888 ft 460 kts 342°
2026-05-07 16:35 40.49694 -8.23485 37893 ft 461 kts 342°
2026-05-07 16:36 40.55986 -8.25138 37884 ft 460 kts 342°
2026-05-07 16:36 40.62270 -8.26792 37911 ft 460 kts 342°
2026-05-07 16:37 40.68556 -8.28451 37894 ft 460 kts 342°
2026-05-07 16:37 40.70281 -8.28906 37894 ft 461 kts 342°
2026-05-07 16:38 40.76690 -8.30599 37901 ft 460 kts 342°
2026-05-07 16:38 40.82939 -8.32255 37893 ft 461 kts 342°
2026-05-07 16:39 40.89278 -8.33940 37897 ft 461 kts 342°
2026-05-07 16:39 40.95579 -8.35611 37902 ft 463 kts 342°
2026-05-07 16:40 41.01974 -8.37316 37893 ft 463 kts 342°
2026-05-07 16:40 41.08303 -8.39011 37902 ft 462 kts 343°
2026-05-07 16:41 41.14610 -8.40697 37892 ft 462 kts 343°
2026-05-07 16:41 41.20912 -8.42384 37893 ft 462 kts 343°
2026-05-07 16:42 41.27218 -8.44079 37931 ft 462 kts 343°
2026-05-07 16:42 41.33516 -8.45775 37912 ft 462 kts 343°
2026-05-07 16:43 41.39816 -8.47471 37908 ft 462 kts 343°
2026-05-07 16:43 41.46118 -8.49172 37904 ft 462 kts 343°
2026-05-07 16:44 41.52423 -8.50880 37899 ft 462 kts 343°
2026-05-07 16:44 41.58731 -8.52588 37892 ft 462 kts 343°
2026-05-07 16:45 41.65060 -8.54306 37890 ft 463 kts 343°
2026-05-07 16:45 41.70312 -8.55737 37898 ft 463 kts 343°
2026-05-07 16:46 41.76661 -8.57304 37887 ft 467 kts 349°
2026-05-07 16:46 41.83229 -8.57131 37890 ft 478 kts
2026-05-07 16:47 41.89687 -8.54718 37899 ft 489 kts 18°
2026-05-07 16:47 41.95652 -8.50139 37891 ft 497 kts 30°
2026-05-07 16:48 42.01121 -8.44997 37884 ft 497 kts 31°
2026-05-07 16:48 42.06809 -8.39610 37884 ft 497 kts 31°
2026-05-07 16:49 42.12480 -8.34264 37906 ft 498 kts 30°
2026-05-07 16:49 42.17785 -8.29268 37883 ft 499 kts 30°
2026-05-07 16:50 42.23266 -8.24109 37882 ft 499 kts 30°
2026-05-07 16:50 42.29003 -8.18697 37867 ft 499 kts 30°
2026-05-07 16:51 42.34738 -8.13275 37879 ft 499 kts 30°
2026-05-07 16:51 42.40515 -8.07798 37870 ft 499 kts 30°
2026-05-07 16:52 42.46214 -8.02383 37872 ft 499 kts 30°
2026-05-07 16:52 42.51714 -7.97144 37869 ft 499 kts 30°
2026-05-07 16:53 42.57404 -7.91713 37872 ft 499 kts 30°
2026-05-07 16:53 42.63059 -7.86304 37872 ft 499 kts 30°
2026-05-07 16:54 42.68781 -7.80819 37875 ft 500 kts 30°
2026-05-07 16:54 42.71522 -7.78186 37880 ft 500 kts 30°
2026-05-07 16:55 42.74623 -7.75204 37873 ft 500 kts 30°
2026-05-07 16:56 42.80324 -7.69712 37878 ft 498 kts 30°
2026-05-07 16:56 42.88806 -7.61520 37876 ft 498 kts 31°
2026-05-07 16:57 42.94452 -7.56048 37882 ft 498 kts 30°
2026-05-07 16:57 42.98056 -7.52551 37874 ft 497 kts 30°
2026-05-07 16:58 43.03719 -7.47047 37890 ft 496 kts 31°
2026-05-07 16:58 43.09339 -7.41568 37884 ft 496 kts 31°
2026-05-07 16:59 43.14970 -7.36067 37880 ft 496 kts 31°
2026-05-07 16:59 43.20582 -7.30573 37896 ft 496 kts 31°
2026-05-07 17:00 43.26185 -7.25078 37887 ft 494 kts 31°
2026-05-07 17:00 43.31771 -7.19582 37893 ft 492 kts 31°
2026-05-07 17:01 43.37320 -7.14109 37872 ft 490 kts 31°
2026-05-07 17:01 43.40884 -7.10587 37895 ft 490 kts 31°
2026-05-07 17:02 43.44984 -7.06533 37893 ft 489 kts 32°
2026-05-07 17:02 43.49611 -7.01946 37898 ft 489 kts 32°
2026-05-07 17:03 43.52616 -6.98962 37888 ft 489 kts 32°
2026-05-07 17:03 43.58143 -6.93464 37893 ft 489 kts 32°
2026-05-07 17:04 43.63662 -6.87964 37906 ft 489 kts 32°
2026-05-07 17:04 43.69160 -6.82472 37890 ft 488 kts 32°
2026-05-07 17:05 43.72735 -6.78894 37900 ft 487 kts 32°